Location: Austin
(30.3000°N, 97.7500°W)
Time: 11:00:26
(UTC-05:00)

Okean-O - Pass Details

Date: 26 May 2023
Orbit: 636 x 638 km, 98.1° (Epoch: 30 May)

Event Time Altitude Azimuth Distance (km) Brightness Sun altitude
Exits shadow 21:20:07 14° 139° (SE) 1,737 4.2 -11.2°
Maximum altitude 21:23:29 40° 74° (ENE) 932 3.2 -11.9°
Drops below altitude 10° 21:27:37 10° 5° (N) 2,025 5.6 -12.6°
Sets 21:29:54 0° 358° (N) 2,937 6.6 -13.0°
